| time (UTC) | temp C | wind direction | speed KPH | gust KPH | rain 1hr cm | rain 24hr cm | rain mn cm | humidity % | barometer mb |
| 20260510003352 | 13 | 201 | 0.0 | 0.0 | 0.00 | 1.45 | 0.00 | 100 | 1013.6 |
| 20260510002350 | 13 | 201 | 0.0 | 1.6 | 0.00 | 1.45 | 0.00 | 100 | 1013.7 |
| 20260510001354 | 13 | 201 | 0.0 | 1.6 | 0.00 | 1.45 | 0.00 | 100 | 1013.8 |
| 20260510000342 | 13 | 201 | 1.6 | 4.8 | 0.00 | 1.45 | 0.00 | 100 | 1014.0 |
| 20260509235349 | 13 | 201 | 0.0 | 4.8 | 0.00 | 1.45 | 0.00 | 100 | 1014.2 |
| 20260509234354 | 14 | 201 | 0.0 | 0.0 | 0.00 | 1.45 | 0.00 | 100 | 1014.1 |
| 20260509233338 | 14 | 201 | 0.0 | 0.0 | 0.00 | 1.45 | 0.00 | 100 | 1014.3 |
| 20260509232355 | 14 | 201 | 0.0 | 0.0 | 0.00 | 1.45 | 0.00 | 100 | 1014.4 |
| 20260509231344 | 14 | 201 | 0.0 | 3.2 | 0.00 | 1.45 | 0.00 | 100 | 1014.3 |
| 20260509230346 | 14 | 201 | 0.0 | 0.0 | 0.00 | 1.45 | 0.00 | 100 | 1014.3 |
| 20260509225348 | 14 | 201 | 0.0 | 0.0 | 0.00 | 1.45 | 0.00 | 100 | 1014.3 |
| 20260509224353 | 14 | 201 | 0.0 | 0.0 | 0.00 | 1.45 | 0.00 | 100 | 1014.4 |
| 20260509223334 | 14 | 201 | 0.0 | 4.8 | 0.00 | 1.45 | 0.00 | 100 | 1014.3 |
| 20260509222341 | 14 | 201 | 1.6 | 3.2 | 0.00 | 1.45 | 0.00 | 100 | 1014.4 |
| 20260509221346 | 14 | 201 | 1.6 | 4.8 | 0.00 | 1.45 | 0.00 | 100 | 1014.4 |
| 20260509220354 | 14 | 201 | 0.0 | 0.0 | 0.00 | 1.45 | 0.00 | 100 | 1014.3 |
| 20260509215352 | 14 | 201 | 0.0 | 0.0 | 0.00 | 1.45 | 1.45 | 100 | 1014.3 |
| 20260509214355 | 14 | 201 | 0.0 | 0.0 | 0.00 | 1.45 | 1.45 | 100 | 1014.4 |
| 20260509213344 | 14 | 201 | 0.0 | 3.2 | 0.00 | 1.45 | 1.45 | 100 | 1014.2 |
| 20260509212349 | 14 | 201 | 0.0 | 1.6 | 0.00 | 1.45 | 1.45 | 100 | 1014.2 |
| 20260509211336 | 14 | 201 | 0.0 | 3.2 | 0.00 | 1.45 | 1.45 | 100 | 1014.1 |
| 20260509210341 | 14 | 201 | 1.6 | 4.8 | 0.00 | 1.45 | 1.45 | 100 | 1014.2 |
| 20260509205342 | 15 | 209 | 0.0 | 0.0 | 0.00 | 1.45 | 1.45 | 100 | 1014.1 |
| 20260509204351 | 15 | 209 | 0.0 | 3.2 | 0.00 | 1.45 | 1.45 | 100 | 1014.0 |
| 20260509203340 | 15 | 209 | 0.0 | 0.0 | 0.00 | 1.45 | 1.45 | 100 | 1013.8 |
| 20260509202354 | 15 | 208 | 0.0 | 0.0 | 0.00 | 1.45 | 1.45 | 100 | 1013.5 |
| 20260509201341 | 15 | 209 | 0.0 | 1.6 | 0.00 | 1.45 | 1.45 | 100 | 1013.2 |
| 20260509200347 | 15 | 208 | 0.0 | 0.0 | 0.00 | 1.45 | 1.45 | 100 | 1013.2 |
| 20260509195348 | 15 | 207 | 0.0 | 0.0 | 0.00 | 1.45 | 1.45 | 100 | 1013.0 |
| 20260509194350 | 15 | 207 | 0.0 | 3.2 | 0.00 | 1.45 | 1.45 | 100 | 1013.1 |
| 20260509193336 | 15 | 206 | 1.6 | 4.8 | 0.00 | 1.45 | 1.45 | 100 | 1012.9 |
| 20260509192339 | 15 | 202 | 3.2 | 4.8 | 0.00 | 1.45 | 1.45 | 100 | 1012.8 |
| 20260509191350 | 15 | 159 | 3.2 | 4.8 | 0.00 | 1.45 | 1.45 | 100 | 1012.6 |
| 20260509190337 | 14 | 60 | 0.0 | 0.0 | 0.00 | 1.45 | 1.45 | 100 | 1012.1 |
| 20260509185353 | 14 | 59 | 0.0 | 3.2 | 0.03 | 1.45 | 1.45 | 100 | 1012.0 |
| 20260509184338 | 14 | 60 | 0.0 | 3.2 | 0.03 | 1.45 | 1.45 | 100 | 1011.8 |
| 20260509183344 | 15 | 60 | 0.0 | 8.0 | 0.03 | 1.45 | 1.45 | 100 | 1011.8 |
| 20260509182343 | 15 | 56 | 6.4 | 11.3 | 0.03 | 1.45 | 1.45 | 99 | 1011.4 |
| 20260509181347 | 15 | 0 | 1.6 | 8.0 | 0.03 | 1.45 | 1.45 | 99 | 1011.6 |
| 20260509180353 | 15 | 89 | 0.0 | 4.8 | 0.05 | 1.45 | 1.45 | 99 | 1011.3 |
| 20260509175356 | 15 | 59 | 3.2 | 4.8 | 0.05 | 1.45 | 1.45 | 98 | 1011.2 |
| 20260509174357 | 15 | 54 | 1.6 | 6.4 | 0.15 | 1.45 | 1.45 | 97 | 1011.3 |
| 20260509173340 | 15 | 33 | 6.4 | 11.3 | 0.25 | 1.45 | 1.45 | 96 | 1011.0 |
| 20260509172353 | 15 | 29 | 0.0 | 6.4 | 0.38 | 1.45 | 1.40 | 96 | 1011.2 |
| 20260509171354 | 15 | 358 | 4.8 | 12.9 | 0.51 | 1.45 | 1.40 | 95 | 1011.1 |
| 20260509170337 | 15 | 346 | 6.4 | 12.9 | 0.58 | 1.42 | 1.40 | 94 | 1011.6 |
| 20260509165343 | 15 | 356 | 3.2 | 8.0 | 0.66 | 1.37 | 1.12 | 94 | 1012.3 |
| 20260509164347 | 15 | 150 | 0.0 | 1.6 | 0.64 | 1.30 | 1.12 | 94 | 1012.6 |
| 20260509163353 | 15 | 151 | 0.0 | 1.6 | 0.61 | 1.17 | 1.12 | 93 | 1012.9 |
| 20260509162354 | 15 | 151 | 0.0 | 3.2 | 0.53 | 1.07 | 0.79 | 92 | 1013.4 |
| 20260509161358 | 15 | 233 | 1.6 | 4.8 | 0.48 | 0.94 | 0.79 | 92 | 1013.7 |
| 20260509160357 | 15 | 233 | 4.8 | 6.4 | 0.43 | 0.86 | 0.79 | 91 | 1013.9 |
| 20260509155402 | 15 | 238 | 4.8 | 14.5 | 0.33 | 0.71 | 0.53 | 90 | 1014.0 |
| 20260509154402 | 15 | 258 | 9.7 | 16.1 | 0.33 | 0.66 | 0.53 | 88 | 1014.0 |
| 20260509153412 | 16 | 212 | 12.9 | 20.9 | 0.41 | 0.58 | 0.53 | 87 | 1013.5 |
| 20260509152400 | 16 | 229 | 8.0 | 14.5 | 0.41 | 0.51 | 0.43 | 86 | 1013.0 |
| 20260509151417 | 16 | 193 | 3.2 | 11.3 | 0.36 | 0.46 | 0.43 | 86 | 1011.7 |
| 20260509150423 | 16 | 60 | 3.2 | 22.5 | 0.38 | 0.43 | 0.43 | 85 | 1010.4 |
| 20260509145417 | 16 | 26 | 9.7 | 22.5 | 0.38 | 0.41 | 0.13 | 84 | 1010.9 |
| 20260509144414 | 16 | 56 | 8.0 | 25.7 | 0.33 | 0.33 | 0.13 | 82 | 1011.0 |
| 20260509143421 | 16 | 85 | 12.9 | 25.7 | 0.18 | 0.18 | 0.13 | 79 | 1011.7 |
| 20260509142418 | 17 | 83 | 6.4 | 14.5 | 0.13 | 0.13 | 0.05 | 76 | 1012.8 |
| 20260509141422 | 17 | 137 | 6.4 | 11.3 | 0.10 | 0.10 | 0.05 | 72 | 1013.4 |
| 20260509140409 | 18 | 111 | 1.6 | 6.4 | 0.05 | 0.05 | 0.05 | 68 | 1013.5 |
| 20260509135415 | 18 | 126 | 0.0 | 6.4 | 0.03 | 0.03 | 0.00 | 64 | 1013.9 |
| 20260509134338 | 18 | 158 | 1.6 | 8.0 | 0.00 | 0.00 | 0.00 | 60 | 1013.7 |
| 20260509133342 | 18 | 116 | 4.8 | 14.5 | 0.00 | 0.00 | 0.00 | 60 | 1013.4 |
| 20260509132338 | 18 | 59 | 3.2 | 11.3 | 0.00 | 0.00 | 0.00 | 60 | 1013.2 |
| 20260509131344 | 18 | 66 | 6.4 | 14.5 | 0.00 | 0.00 | 0.00 | 61 | 1013.1 |
| 20260509130344 | 18 | 86 | 4.8 | 17.7 | 0.00 | 0.00 | 0.00 | 60 | 1012.5 |
| 20260509125342 | 18 | 71 | 8.0 | 19.3 | 0.00 | 0.00 | 0.00 | 59 | 1012.4 |
| 20260509124349 | 18 | 46 | 9.7 | 14.5 | 0.00 | 0.00 | 0.00 | 59 | 1012.5 |
| 20260509123355 | 18 | 28 | 8.0 | 20.9 | 0.00 | 0.00 | 0.00 | 59 | 1012.6 |
| 20260509122357 | 18 | 53 | 4.8 | 20.9 | 0.00 | 0.00 | 0.00 | 59 | 1013.0 |
| 20260509121357 | 19 | 65 | 11.3 | 19.3 | 0.00 | 0.00 | 0.00 | 57 | 1013.3 |
| 20260509120343 | 19 | 96 | 6.4 | 14.5 | 0.00 | 0.00 | 0.00 | 57 | 1013.8 |
| 20260509115344 | 18 | 77 | 8.0 | 20.9 | 0.00 | 0.00 | 0.00 | 56 | 1014.1 |
| 20260509114347 | 19 | 105 | 6.4 | 19.3 | 0.00 | 0.00 | 0.00 | 58 | 1014.4 |
| 20260509113352 | 19 | 119 | 6.4 | 20.9 | 0.00 | 0.00 | 0.00 | 57 | 1014.4 |
| 20260509112352 | 19 | 101 | 9.7 | 22.5 | 0.00 | 0.00 | 0.00 | 57 | 1014.7 |
| 20260509111352 | 19 | 70 | 11.3 | 20.9 | 0.00 | 0.00 | 0.00 | 55 | 1014.6 |
| 20260509110349 | 19 | 115 | 3.2 | 17.7 | 0.00 | 0.00 | 0.00 | 57 | 1014.4 |
| 20260509105352 | 19 | 109 | 8.0 | 24.1 | 0.00 | 0.00 | 0.00 | 58 | 1014.6 |
| 20260509104356 | 19 | 109 | 6.4 | 14.5 | 0.00 | 0.00 | 0.00 | 61 | 1014.5 |
| 20260509103358 | 19 | 71 | 6.4 | 20.9 | 0.00 | 0.00 | 0.00 | 61 | 1014.5 |
| 20260509102355 | 19 | 153 | 11.3 | 19.3 | 0.00 | 0.00 | 0.00 | 63 | 1014.5 |
| 20260509101337 | 19 | 63 | 6.4 | 22.5 | 0.00 | 0.00 | 0.00 | 63 | 1014.4 |
| 20260509100340 | 19 | 85 | 3.2 | 19.3 | 0.00 | 0.00 | 0.00 | 63 | 1014.4 |
| 20260509095340 | 19 | 87 | 8.0 | 11.3 | 0.00 | 0.00 | 0.00 | 64 | 1014.4 |
| 20260509094354 | 19 | 78 | 4.8 | 20.9 | 0.00 | 0.00 | 0.00 | 64 | 1014.3 |
| 20260509093357 | 19 | 35 | 9.7 | 14.5 | 0.00 | 0.00 | 0.00 | 65 | 1014.2 |
| 20260509092355 | 19 | 71 | 8.0 | 17.7 | 0.00 | 0.00 | 0.00 | 66 | 1014.2 |
| 20260509091356 | 18 | 111 | 4.8 | 14.5 | 0.00 | 0.00 | 0.00 | 68 | 1014.0 |
| 20260509090338 | 18 | 75 | 9.7 | 14.5 | 0.00 | 0.00 | 0.00 | 69 | 1013.8 |
| 20260509085357 | 18 | 55 | 8.0 | 16.1 | 0.00 | 0.00 | 0.00 | 70 | 1014.0 |
| 20260509084342 | 18 | 72 | 8.0 | 17.7 | 0.00 | 0.00 | 0.00 | 69 | 1014.0 |
| 20260509083348 | 18 | 95 | 8.0 | 16.1 | 0.00 | 0.00 | 0.00 | 70 | 1013.8 |
| 20260509082338 | 18 | 68 | 4.8 | 14.5 | 0.00 | 0.00 | 0.00 | 70 | 1013.7 |
| 20260509081359 | 18 | 43 | 6.4 | 16.1 | 0.00 | 0.00 | 0.00 | 70 | 1013.8 |
| 20260509080340 | 18 | 46 | 9.7 | 16.1 | 0.00 | 0.00 | 0.00 | 72 | 1013.8 |
| 20260509075401 | 17 | 76 | 3.2 | 12.9 | 0.00 | 0.00 | 0.00 | 73 | 1014.0 |
| 20260509074341 | 17 | 14 | 6.4 | 14.5 | 0.00 | 0.00 | 0.00 | 73 | 1014.0 |
| 20260509073349 | 17 | 51 | 11.3 | 17.7 | 0.00 | 0.00 | 0.00 | 75 | 1014.1 |
| 20260509072345 | 17 | 79 | 6.4 | 11.3 | 0.00 | 0.00 | 0.00 | 76 | 1014.2 |
| 20260509071352 | 16 | 41 | 4.8 | 12.9 | 0.00 | 0.00 | 0.00 | 76 | 1014.5 |
| 20260509070352 | 16 | 23 | 8.0 | 16.1 | 0.00 | 0.00 | 0.00 | 76 | 1014.6 |
| 20260509065348 | 16 | 54 | 8.0 | 12.9 | 0.00 | 0.00 | 0.00 | 76 | 1014.6 |
| 20260509064354 | 16 | 50 | 9.7 | 17.7 | 0.00 | 0.00 | 0.00 | 77 | 1014.6 |
| 20260509063357 | 16 | 20 | 6.4 | 14.5 | 0.00 | 0.00 | 0.00 | 77 | 1014.7 |
| 20260509062351 | 15 | 93 | 4.8 | 14.5 | 0.00 | 0.00 | 0.00 | 77 | 1014.8 |
| 20260509061357 | 15 | 31 | 4.8 | 11.3 | 0.00 | 0.00 | 0.00 | 78 | 1014.8 |
| 20260509060340 | 15 | 45 | 6.4 | 9.7 | 0.00 | 0.00 | 0.00 | 77 | 1014.9 |
| 20260509055358 | 15 | 44 | 6.4 | 11.3 | 0.00 | 0.00 | 0.00 | 76 | 1014.8 |
| 20260509054339 | 15 | 36 | 6.4 | 9.7 | 0.00 | 0.00 | 0.00 | 76 | 1014.6 |
| 20260509053342 | 15 | 44 | 4.8 | 11.3 | 0.00 | 0.00 | 0.00 | 76 | 1014.5 |
| 20260509052359 | 15 | 46 | 6.4 | 9.7 | 0.00 | 0.00 | 0.00 | 76 | 1014.7 |
| 20260509051354 | 15 | 62 | 4.8 | 9.7 | 0.00 | 0.00 | 0.00 | 76 | 1014.5 |
| 20260509050355 | 15 | 30 | 4.8 | 9.7 | 0.00 | 0.00 | 0.00 | 76 | 1015.0 |
| 20260509045355 | 15 | 41 | 3.2 | 11.3 | 0.00 | 0.00 | 0.00 | 76 | 1014.8 |
| 20260509044353 | 15 | 37 | 4.8 | 8.0 | 0.00 | 0.00 | 0.00 | 76 | 1014.8 |
| 20260509043358 | 15 | 59 | 4.8 | 6.4 | 0.00 | 0.00 | 0.00 | 76 | 1014.8 |
| 20260509042350 | 15 | 22 | 3.2 | 8.0 | 0.00 | 0.00 | 0.00 | 76 | 1014.9 |
| 20260509041353 | 15 | 57 | 3.2 | 11.3 | 0.00 | 0.00 | 0.00 | 76 | 1014.9 |
| 20260509040355 | 15 | 31 | 4.8 | 8.0 | 0.00 | 0.00 | 0.00 | 77 | 1014.7 |
| 20260509035355 | 15 | 21 | 4.8 | 8.0 | 0.00 | 0.00 | 0.00 | 76 | 1014.8 |
| 20260509034355 | 15 | 0 | 3.2 | 6.4 | 0.00 | 0.00 | 0.00 | 76 | 1014.9 |
| 20260509033340 | 15 | 25 | 4.8 | 8.0 | 0.00 | 0.00 | 0.00 | 75 | 1015.0 |
| 20260509032338 | 15 | 14 | 0.0 | 3.2 | 0.00 | 0.00 | 0.00 | 76 | 1015.0 |
| 20260509031337 | 15 | 14 | 0.0 | 6.4 | 0.00 | 0.00 | 0.00 | 76 | 1014.9 |
| 20260509030338 | 15 | 11 | 3.2 | 6.4 | 0.00 | 0.00 | 0.00 | 76 | 1015.0 |
| 20260509025354 | 15 | 20 | 1.6 | 8.0 | 0.00 | 0.00 | 0.00 | 76 | 1015.0 |
| 20260509024356 | 15 | 48 | 4.8 | 6.4 | 0.00 | 0.00 | 0.00 | 76 | 1014.8 |
| 20260509023342 | 15 | 37 | 1.6 | 8.0 | 0.00 | 0.00 | 0.00 | 76 | 1015.0 |
| 20260509022340 | 15 | 34 | 6.4 | 8.0 | 0.00 | 0.00 | 0.00 | 75 | 1015.3 |
| 20260509021338 | 15 | 40 | 4.8 | 8.0 | 0.00 | 0.00 | 0.00 | 75 | 1015.3 |
| 20260509020340 | 15 | 38 | 4.8 | 9.7 | 0.00 | 0.00 | 0.00 | 75 | 1015.2 |
| 20260509015357 | 15 | 24 | 6.4 | 8.0 | 0.00 | 0.00 | 0.00 | 75 | 1015.5 |
| 20260509014339 | 15 | 27 | 3.2 | 8.0 | 0.00 | 0.00 | 0.00 | 75 | 1015.6 |
| 20260509013341 | 15 | 57 | 3.2 | 8.0 | 0.00 | 0.00 | 0.00 | 76 | 1015.8 |
| 20260509012359 | 15 | 37 | 4.8 | 9.7 | 0.00 | 0.00 | 0.00 | 76 | 1015.9 |
| 20260509011358 | 15 | 23 | 6.4 | 9.7 | 0.00 | 0.00 | 0.00 | 76 | 1015.6 |
| 20260509010337 | 15 | 46 | 4.8 | 6.4 | 0.00 | 0.00 | 0.00 | 76 | 1015.9 |
| 20260509005340 | 15 | 44 | 1.6 | 8.0 | 0.00 | 0.00 | 0.00 | 76 | 1016.0 |
| 20260509004354 | 15 | 22 | 4.8 | 9.7 | 0.00 | 0.00 | 0.00 | 76 | 1016.1 |